Probability
0 0 0 0 0 0 0 0 0 1 3 5 9 12 11 6 4 4 6 10 13 11 8 5 4 3 1 0 0 0 0 0 0 0 0 0 0 0 0 0 0 0 0 0 0 0 0 0 0
0 0 0 0 0 0 0 0 1 3 7 10 12 13 11 7 6 6 8 11 14 12 8 5 5 3 1 0 0 0 0 0 0 0 0 0 0 0 0 0 0 0 0 0 0 0 0 0 0
0 0 0 0 0 0 0 0 2 6 12 17 17 15 12 9 8 9 11 15 18 16 10 7 6 5 2 0 0 0 0 0 0 0 0 0 0 0 0 0 0 0 0 0 0 0 0 0 0
0 0 0 0 0 0 0 1 3 8 15 22 23 18 14 13 15 17 18 21 24 21 13 9 8 7 5 2 1 0 0 0 0 0 0 0 0 0 0 0 0 0 0 0 0 0 0 0 0
0 0 0 0 0 0 0 1 5 12 21 28 27 21 17 22 28 29 25 25 26 23 16 11 9 8 6 4 2 1 0 0 0 0 0 0 0 0 0 0 0 0 0 0 0 0 0 0 0
0 0 0 0 0 0 0 1 7 18 29 33 29 22 20 29 38 35 28 25 25 23 17 12 9 7 6 5 3 1 0 0 0 0 0 0 0 0 0 0 0 0 0 0 0 0 0 0 0
0 0 0 0 0 0 0 2 9 22 32 32 26 20 20 29 35 32 27 23 22 22 19 13 8 6 6 6 4 2 1 0 0 0 0 0 0 0 0 0 0 0 0 0 0 0 0 0 0
0 0 0 0 0 0 0 2 9 20 27 26 22 20 24 31 33 33 29 23 20 20 19 13 7 5 5 5 5 3 2 1 0 0 0 0 0 0 0 0 0 0 0 0 0 0 0 0 0
0 0 0 0 0 0 1 4 11 22 30 31 30 31 37 42 43 42 37 27 21 21 17 10 5 4 4 4 4 3 2 1 0 0 0 0 0 0 0 0 0 0 0 0 0 0 0 0 0
0 0 0 0 0 0 1 4 13 26 38 44 46 48 52 52 52 50 43 30 22 20 16 8 4 3 3 3 3 3 3 1 0 0 0 0 0 0 0 0 0 0 0 0 0 0 0 0 0
0 0 0 0 0 0 1 4 12 25 38 48 55 58 60 57 54 52 44 31 21 18 14 7 3 3 3 3 3 3 3 2 1 0 0 0 0 0 0 0 0 0 0 0 0 0 0 0 0
0 0 0 0 0 0 1 4 11 22 34 46 54 58 60 58 52 47 42 31 22 17 13 7 3 3 4 4 4 3 3 2 1 0 0 0 0 0 0 0 0 0 0 0 0 0 0 0 0
0 0 0 0 0 0 2 6 12 24 36 44 49 54 56 54 47 41 39 33 26 22 17 9 5 4 6 6 6 4 4 3 1 0 0 0 0 0 0 0 0 0 0 0 0 0 0 0 0
0 0 0 0 0 0 3 8 15 25 36 41 43 47 48 46 40 38 39 39 33 28 23 15 8 7 9 9 7 5 5 4 2 0 0 0 0 0 0 0 0 0 0 0 0 0 0 0 0
0 0 0 0 0 0 2 6 13 23 31 34 36 39 41 40 38 38 43 44 39 32 26 18 12 11 12 11 8 6 6 6 3 1 1 0 0 0 0 0 0 0 0 0 0 0 0 0 0
0 0 0 0 0 0 1 2 10 21 27 27 29 35 39 38 35 35 41 46 43 36 28 20 15 13 13 11 9 8 8 7 5 3 2 1 0 0 0 0 0 0 0 0 0 0 0 0 0
0 0 0 0 0 0 0 1 7 18 25 28 32 38 41 40 35 34 40 46 45 40 34 26 19 14 12 12 11 10 9 8 6 4 3 2 1 0 0 0 0 0 0 0 0 0 0 0 0
0 0 0 0 0 0 0 1 7 16 25 32 39 44 45 43 40 40 43 47 45 41 39 33 24 16 12 11 11 10 8 7 6 4 4 3 2 1 0 0 0 0 0 0 0 0 0 0 0
0 0 0 0 0 0 0 2 8 16 24 33 41 46 46 45 46 46 47 47 44 41 40 36 30 21 13 9 9 8 6 5 4 4 4 4 4 3 1 0 0 0 0 0 0 0 0 0 0
0 0 0 0 0 0 1 3 10 17 23 31 42 48 48 47 48 49 49 48 45 42 41 39 36 26 14 8 8 7 4 3 3 3 4 5 5 4 1 0 0 0 0 0 0 0 0 0 0
0 0 0 0 0 0 1 3 9 16 22 31 44 51 50 48 49 50 50 49 47 44 43 42 38 30 18 10 8 7 5 4 4 3 4 4 4 3 1 0 0 0 0 0 0 0 0 0 0
0 0 0 0 0 0 0 1 6 13 21 31 44 51 51 48 46 47 48 48 46 44 44 42 38 32 24 15 10 9 8 7 5 4 3 2 1 1 0 0 0 0 0 0 0 0 0 0 0
0 0 0 0 0 0 0 0 3 10 18 27 38 45 50 49 46 46 47 47 45 42 41 39 36 33 28 21 15 12 11 9 7 5 3 2 1 0 0 0 0 0 0 0 0 0 0 0 0
0 0 0 0 0 0 0 0 2 7 13 20 29 38 45 47 46 45 46 46 43 39 37 36 35 34 30 25 19 15 13 11 8 7 5 4 2 2 1 0 0 0 0 0 0 0 0 0 0
0 0 0 0 0 0 0 0 2 5 9 15 23 32 38 42 44 44 43 42 39 36 34 34 34 34 31 26 22 17 14 12 9 7 6 5 4 3 2 2 1 0 0 0 0 0 0 0 0
0 0 0 0 0 0 0 1 3 6 8 13 21 29 34 38 41 40 37 35 34 33 34 34 33 33 32 28 24 19 15 12 9 7 6 5 4 4 4 3 1 0 0 0 0 0 0 0 0
0 0 0 0 0 0 0 1 5 7 8 11 18 24 29 33 35 33 29 28 30 31 32 32 31 31 31 29 25 20 16 12 9 7 6 6 5 4 4 3 1 0 0 0 0 0 0 0 0
0 0 0 0 0 0 0 1 4 7 8 9 13 17 20 24 26 25 24 25 28 30 31 32 30 28 28 27 25 22 17 13 10 9 8 7 6 4 3 3 2 0 0 1 1 0 0 0 0
0 0 0 0 0 0 0 0 2 6 8 8 9 12 15 18 20 22 22 23 25 28 30 30 27 25 23 23 24 22 18 13 11 10 10 7 5 4 4 4 3 1 1 2 2 1 0 0 0
0 0 0 0 0 0 0 0 2 6 8 7 8 12 16 18 21 22 21 21 23 26 28 28 25 22 20 20 22 21 18 13 11 11 10 6 4 4 5 5 3 2 1 2 2 1 0 0 0
Wind_Speed
6 4 3 1 3 3 3 5 2 1 3 5 9 12 10 6 5 6 7 17 19 17 14 17 19 19 19 18 18 18 17 17 17 17 17 17 16 16 16 16 15 15 15 15 15 15 14 14 14
3 4 2 2 3 1 5 4 2 3 7 9 9 9 8 7 8 12 11 18 20 17 13 15 20 20 19 18 18 17 17 17 16 16 16 16 16 16 16 15 15 15 15 14 14 14 14 13 13
3 3 2 2 2 4 5 3 3 5 9 10 7 5 6 9 11 8 13 20 17 14 11 16 21 20 19 18 17 17 17 16 16 16 16 16 15 15 15 15 15 15 14 14 13 13 13 12 12
1 2 2 1 5 7 6 6 4 5 7 8 10 7 5 6 8 15 22 20 18 13 11 15 21 20 19 19 18 17 17 16 16 16 16 15 15 15 15 15 15 14 14 13 13 12 11 11 10
2 3 2 2 6 7 6 8 7 6 5 8 12 8 5 6 19 24 21 19 18 14 10 14 20 20 19 19 18 17 17 16 16 16 16 15 15 15 15 14 14 13 13 12 11 11 10 9 9
3 3 2 3 7 7 6 6 4 7 10 10 11 9 5 10 21 20 19 17 17 16 12 13 20 20 19 19 18 17 17 16 16 16 15 15 15 15 14 14 13 13 12 11 10 10 9 8 7
3 1 3 4 6 7 6 2 5 6 8 7 10 9 7 10 16 18 17 16 15 14 12 10 11 14 18 18 18 17 16 16 16 15 15 15 15 14 14 13 13 12 11 10 9 8 7 6 6
4 2 3 3 4 6 3 1 5 8 7 10 8 11 11 13 16 16 15 14 14 12 11 9 8 8 9 11 17 17 17 16 15 15 15 15 14 14 13 11 12 11 10 9 8 7 6 5 5
2 2 4 5 4 4 2 2 2 5 9 6 5 8 16 21 21 18 15 13 12 12 9 9 9 8 7 8 13 14 15 15 14 12 15 12 6 6 7 9 11 11 10 8 7 6 4 4 4
5 5 9 8 5 4 5 3 5 5 9 7 9 13 19 22 22 20 19 18 15 15 12 10 10 9 8 9 7 5 6 7 6 5 6 4 4 4 6 9 10 10 8 7 5 4 2 2 2
6 8 8 10 9 7 5 3 3 9 7 12 18 19 19 20 19 19 18 18 17 16 14 11 11 10 8 6 6 4 3 4 5 5 6 4 4 3 3 2 4 4 5 2 2 1 1 1 1
6 9 10 11 9 6 5 3 4 7 10 15 20 22 19 20 18 18 18 16 15 15 14 13 11 10 8 7 6 5 4 4 4 5 6 4 3 3 3 2 2 2 1 2 1 1 1 1 2
10 12 14 13 9 7 3 3 6 7 12 15 17 16 18 18 16 14 15 15 15 15 14 14 12 11 9 8 6 7 6 5 5 4 5 6 5 4 4 2 2 2 2 2 2 1 1 1 2
8 8 10 10 9 6 4 3 6 7 14 16 16 14 14 14 14 12 13 15 15 16 16 13 13 11 10 8 7 6 6 5 5 4 6 7 5 5 4 3 3 2 2 2 2 2 2 1 2
8 8 10 9 6 4 4 0 5 13 15 15 14 14 13 12 13 15 16 16 16 16 15 14 13 12 11 10 9 7 6 6 5 5 6 6 6 6 5 4 3 3 2 3 2 2 2 2 2
4 3 5 9 4 4 6 5 6 13 16 14 13 13 13 12 14 14 15 14 14 14 14 14 14 12 11 9 7 6 6 6 5 5 5 6 6 6 5 4 3 3 2 2 3 2 2 2 2
3 2 5 8 5 3 4 6 8 12 15 15 14 13 13 12 11 11 14 14 15 15 14 13 11 12 11 8 6 6 6 6 5 5 5 5 6 6 5 4 3 3 3 2 2 2 2 2 2
5 4 5 7 6 4 5 7 9 12 15 16 15 13 13 14 13 13 14 14 13 13 13 13 11 11 9 7 5 5 5 5 5 5 5 6 5 6 5 3 3 3 3 2 2 3 2 2 2
6 7 9 11 9 5 6 6 8 11 13 13 13 13 14 13 10 11 12 13 13 12 12 12 12 11 9 7 6 6 6 5 4 4 6 6 6 5 5 4 3 3 3 3 3 2 2 1 1
9 10 11 11 9 4 3 3 6 9 13 15 16 16 16 12 10 11 12 12 13 14 14 13 13 12 10 7 6 5 5 4 4 4 4 5 6 5 5 5 4 4 3 3 3 3 2 1 2
11 10 10 9 8 3 3 1 1 3 3 8 13 14 15 17 17 15 14 13 13 13 15 13 13 12 11 9 6 5 4 3 3 4 4 4 5 5 5 5 4 4 4 3 3 3 4 2 0
11 12 10 8 3 3 2 3 5 3 2 7 10 12 13 14 14 14 14 14 14 14 13 12 12 11 10 10 9 10 8 6 5 5 4 4 5 5 5 5 5 4 4 4 3 3 3 3 2
11 10 7 5 3 0 2 3 6 2 4 7 10 13 14 15 16 16 16 15 14 12 11 11 11 10 10 10 10 10 7 5 4 5 6 5 4 5 5 5 5 4 4 4 3 3 3 3 3
10 5 2 3 5 1 3 3 5 5 8 7 8 10 14 15 16 15 13 11 10 10 11 11 11 11 10 11 10 10 10 8 8 7 7 5 3 3 5 6 5 5 4 4 4 4 4 3 3
5 4 3 3 3 4 4 3 8 8 7 8 10 10 13 15 15 14 13 12 12 12 12 11 12 11 11 11 10 10 10 10 11 9 8 7 4 4 5 6 5 4 4 4 4 4 3 3 3
7 10 9 6 4 4 2 3 7 6 4 4 7 9 12 13 13 14 14 13 13 14 13 13 13 12 12 12 11 10 10 8 7 8 7 7 6 5 6 6 6 6 5 5 4 3 3 3 3
6 5 9 8 4 1 3 4 6 3 2 3 6 9 11 13 13 13 13 13 13 14 14 14 14 12 12 12 11 10 9 8 8 8 7 6 5 5 7 7 6 6 5 5 5 3 3 3 3
9 8 6 7 6 2 2 3 3 2 2 2 4 6 9 11 12 12 12 12 12 12 12 12 13 13 12 12 11 10 9 9 8 7 8 7 7 7 8 7 6 6 5 5 5 3 3 4 3
4 4 6 6 7 7 3 6 6 8 6 6 5 6 8 10 11 11 11 11 11 10 10 11 11 11 10 11 10 10 9 9 9 8 8 8 7 8 8 8 7 7 6 6 5 4 4 4 3
6 6 8 7 4 5 5 7 4 6 6 6 4 5 6 8 9 9 9 9 9 10 10 11 11 11 11 11 10 10 9 9 9 9 9 8 8 8 9 8 7 7 7 6 6 6 5 5 4
Wind_Direction
190 181 179 93 48 38 278 255 203 9 40 61 89 100 108 103 134 143 134 140 138 142 144 141 138 134 130 127 125 121 118 116 115 113 112 112 112 111 111 111 111 109 108 106 106 106 106 106 107
179 184 147 64 82 11 274 246 166 151 133 108 81 89 86 74 91 110 123 140 139 139 140 142 140 137 134 131 129 126 123 121 119 117 116 116 116 116 115 114 113 112 111 110 109 108 107 106 107
212 191 123 95 157 199 244 244 172 146 135 119 101 76 83 111 117 117 136 139 135 135 138 145 141 139 137 135 133 130 128 125 123 122 120 119 119 119 117 116 115 114 113 113 112 111 109 108 106
149 75 51 95 245 242 243 256 216 137 120 108 107 79 71 115 125 130 136 139 134 134 137 145 142 141 140 138 136 134 132 129 127 125 123 123 122 121 119 118 117 116 115 115 114 113 110 106 102
89 90 59 287 257 253 247 237 210 147 133 108 102 90 58 65 119 130 138 139 136 136 139 144 144 144 143 141 139 138 136 133 130 128 127 125 124 124 123 122 121 120 119 119 117 114 111 106 99
54 80 103 258 265 272 268 223 184 132 119 108 100 98 71 117 128 136 139 139 139 139 140 145 147 146 145 144 143 141 139 136 134 133 131 129 128 127 127 126 125 124 123 123 121 118 113 106 98
135 122 223 247 280 290 277 210 143 140 133 138 125 106 115 138 138 138 137 135 137 139 141 143 148 148 149 147 146 145 142 140 139 138 136 133 132 131 131 130 129 129 129 128 127 124 117 106 93
166 113 279 267 268 276 279 41 137 141 130 130 127 133 152 156 141 135 132 133 137 143 144 144 144 144 146 148 149 148 147 145 144 144 142 139 138 137 137 135 135 136 134 134 133 129 119 103 88
159 100 243 237 241 262 286 88 67 116 125 130 125 135 144 142 137 136 134 136 144 148 150 149 146 145 145 149 154 151 151 151 149 148 148 141 133 133 137 143 143 142 142 141 139 136 124 97 75
157 192 228 221 224 256 267 194 154 117 112 102 101 113 133 140 144 148 150 154 157 158 160 158 155 154 156 158 146 148 149 147 143 144 142 136 141 150 147 155 151 151 150 150 149 145 124 86 65
187 213 237 250 247 237 238 239 139 133 140 150 143 142 145 149 153 156 158 162 164 162 163 163 163 162 164 151 151 150 144 145 148 152 149 147 143 144 134 141 144 147 151 143 147 130 74 86 103
240 251 252 259 257 237 216 183 125 151 169 159 150 150 153 156 161 160 161 164 164 165 167 166 167 165 165 155 159 158 156 160 163 167 159 148 144 144 145 147 148 152 149 155 157 178 219 196 144
244 257 263 263 262 244 209 163 137 146 145 147 145 149 156 161 165 162 160 161 166 168 168 170 169 169 164 159 167 165 167 170 168 166 163 155 154 158 158 161 160 167 169 165 167 177 171 153 144
244 256 267 268 263 251 189 165 121 152 147 149 152 160 163 163 162 158 163 166 174 172 169 170 170 169 164 166 171 168 170 168 161 163 164 161 159 159 157 159 166 181 183 172 168 165 152 140 130
253 277 289 277 260 233 139 110 171 161 156 156 161 166 163 166 165 170 172 171 173 171 167 169 170 169 168 171 174 168 170 166 163 164 159 156 156 156 154 155 166 181 168 149 132 118 103 111 118
322 304 284 283 269 238 138 213 210 162 159 164 168 169 170 173 175 174 172 169 167 165 167 172 172 169 170 170 171 164 165 161 161 158 155 153 153 154 151 155 162 161 145 129 123 110 94 90 105
339 266 266 286 280 242 167 209 202 172 165 166 170 172 173 174 177 176 171 171 167 167 168 171 169 168 168 165 161 159 157 157 158 155 154 155 154 153 149 152 154 147 134 128 138 114 124 120 122
247 262 273 269 279 251 213 215 196 178 169 171 173 173 171 177 183 176 169 169 166 167 167 168 167 167 163 155 143 140 144 152 154 156 157 154 155 153 144 143 144 137 129 128 121 122 114 132 143
240 262 272 273 274 259 235 214 191 172 166 171 175 175 176 182 177 169 165 165 163 164 165 168 166 168 164 161 154 151 156 160 157 160 158 157 155 150 145 141 138 140 141 152 143 123 111 103 109
246 259 269 281 277 245 216 202 181 176 176 177 178 176 176 173 166 167 165 167 169 169 171 170 170 170 171 169 160 154 150 157 159 155 155 160 155 152 153 144 148 145 135 134 133 122 119 107 123
246 238 247 259 290 327 121 11 263 207 173 170 174 174 173 172 171 170 169 168 169 173 175 175 175 172 170 160 142 135 120 120 135 154 163 168 159 153 145 150 146 148 148 152 151 140 134 137 110
246 241 237 245 240 277 133 187 260 224 191 168 171 171 172 172 170 169 170 171 175 178 177 172 172 172 168 161 160 160 162 165 173 168 166 168 165 156 150 151 148 151 153 154 159 144 140 135 142
234 244 239 236 190 81 11 145 268 220 201 200 181 177 174 171 171 173 176 177 176 174 173 172 168 170 167 167 168 167 165 163 151 153 161 168 170 164 158 156 151 151 153 156 148 133 132 139 148
226 247 328 38 76 88 254 166 260 225 209 204 190 183 175 170 172 173 174 168 167 168 169 170 170 172 171 170 172 173 168 164 160 164 170 173 171 171 168 161 157 156 156 158 152 143 139 136 134
202 127 43 359 19 243 260 179 242 241 217 194 184 182 176 172 171 169 168 169 170 173 175 174 174 175 176 174 178 179 174 173 174 172 175 173 172 176 181 167 162 161 162 161 150 142 143 143 133
198 150 160 185 207 263 320 239 261 263 229 179 161 165 166 169 172 173 174 175 175 177 178 179 179 180 179 180 182 179 175 175 178 176 175 180 181 181 176 168 166 165 161 159 149 142 150 142 137
178 172 168 139 150 126 287 291 314 6 52 124 142 150 163 169 171 175 176 178 180 180 182 183 182 182 183 183 180 178 178 178 178 177 174 177 177 177 173 169 167 167 162 157 150 150 158 146 142
169 160 110 119 145 189 280 268 245 252 225 157 149 165 170 168 168 172 176 179 183 184 184 182 183 185 184 182 184 183 182 182 179 175 179 178 178 174 169 169 168 167 164 158 153 148 156 150 152
151 127 121 127 148 151 199 261 225 198 194 181 176 174 172 167 170 174 175 176 177 177 180 183 186 185 185 185 185 183 184 183 180 182 183 179 176 171 171 172 171 170 169 163 157 162 163 164 167
151 159 141 144 174 153 160 254 270 178 174 164 168 170 170 164 165 168 169 169 172 176 179 184 187 187 188 186 184 186 185 183 183 186 186 178 176 175 174 172 171 174 173 170 169 175 172 173 179